Location: Avully
(45.9633°N, 6.0228°E)
Time: 21:26:30
(UTC+00:00)

Cosmos 2360 Rocket - Pass Details

Date: 14 August 2024
Orbit: 834 x 843 km, 71.0° (Epoch: 10 September)

Event Time Altitude Azimuth Distance (km) Brightness Sun altitude
Exits shadow 01:50:04 10° 286° (WNW) 2,455 4.4 -23.1°
Maximum altitude 01:53:13 15° 321° (NW) 2,123 4.4 -22.8°
Drops below altitude 10° 01:56:25 10° 355° (N) 2,469 5.3 -22.5°
Sets 02:00:02 0° 18° (NNE) 3,405 6.6 -22.1°
